Home > Weather > Antananarivo > Past weeks

Flag for Madagascar Weather for the Past 2 Weeks in Antananarivo, Madagascar

Now
68 °F

Passing clouds.


Feels Like: 68 °F
Forecast: 65 / 81 °F
Wind: 3 mph from South

Location: Antananarivo / Ivato

Current Time: Feb 7, 2016 at 1:02:56 AM

Latest Report: Feb 7, 2016 at 12:00 AM


Visibility: N/A

Pressure: 30.01 "Hg (25.83 "Hg at 1287m altitude)

Humidity: 88%

Dew point: 64 °F

Location of AntananarivoLocation

Historic Weather in Antananarivo — Graph

°F

Antananarivo Temperature Yesterday

Maximum temperature yesterday: 82 °F (at 11:30 AM)
Minimum temperature yesterday: 64 °F (at 5:00 AM)
Average temperature yesterday: 73 °F

High & Low Weather Summary for the Past Weeks

 TemperatureHumidityPressure
High86 °F (Jan 23, 3:30 PM)100% (Jan 22, 11:00 PM)30.42 "Hg (Jan 22, 11:00 PM)
Low61 °F (Jan 27, 5:00 AM)35% (Jan 26, 4:00 PM)29.95 "Hg (Feb 6, 3:30 PM)
Average71 °F74%30.08 "Hg
* Reported Jan 22 11:00 PM — Feb 6 11:30 PM, Antananarivo, Weather by CustomWeather, © 2016

Note: Actual official high and low records may vary slightly from our data, if they occured in-between our weather recording intervals... More about our weather records

Advertising

Antananarivo Weather History for the Previous 24 Hours

 ConditionsComfort  
Time TempWeatherWind HumidityBarometerVisibility
11:30 PM
Sat, Feb 6
70 °FPassing clouds.6 mph83%30.04 "HgN/A
11:00 PM70 °FPassing clouds.No wind83%30.07 "HgN/A
10:30 PM70 °FPassing clouds.3 mph83%30.07 "HgN/A
10:00 PM70 °FPassing clouds.5 mph83%30.04 "HgN/A
9:30 PM70 °FPassing clouds.3 mph83%30.04 "HgN/A
9:00 PM70 °FPassing clouds.6 mph83%30.04 "HgN/A
8:30 PM70 °FPassing clouds.7 mph83%30.04 "HgN/A
8:00 PM70 °FPassing clouds.6 mph83%30.04 "HgN/A
7:30 PM70 °FPassing clouds.9 mph83%30.01 "HgN/A
7:00 PM72 °FPassing clouds.12 mph78%29.98 "HgN/A
6:30 PM73 °FPassing clouds.13 mph74%29.98 "HgN/A
6:00 PM75 °FScattered clouds.14 mph69%29.98 "HgN/A
5:30 PM81 °FScattered clouds.8 mph51%29.95 "HgN/A
5:00 PM81 °FScattered clouds.7 mph54%29.95 "HgN/A
4:31 PM82 °FScattered clouds.9 mph51%29.95 "HgN/A
4:00 PM79 °FScattered clouds.7 mph54%29.95 "HgN/A
3:30 PM82 °FScattered clouds.6 mph55%29.95 "HgN/A
3:00 PM81 °FScattered clouds.8 mph54%29.98 "HgN/A
2:30 PM82 °FScattered clouds.7 mph48%29.98 "HgN/A
2:00 PM81 °FPartly sunny.7 mph51%29.98 "HgN/A
1:30 PM81 °FPartly sunny.10 mph54%30.01 "HgN/A
1:00 PM82 °FPartly sunny.8 mph51%30.01 "HgN/A
12:30 PM82 °FPartly sunny.8 mph51%30.01 "HgN/A
12:00 PM82 °FScattered clouds.9 mph48%30.04 "HgN/A
11:30 AM82 °FScattered clouds.7 mph48%30.04 "HgN/A
11:00 AM81 °FScattered clouds.7 mph58%30.04 "HgN/A
10:30 AM79 °FPartly sunny.8 mph54%30.04 "HgN/A
10:00 AM79 °FPartly sunny.7 mph58%30.07 "HgN/A
9:30 AM77 °FPartly sunny.9 mph57%30.07 "HgN/A
9:00 AM75 °FPartly sunny.7 mph61%30.07 "HgN/A
8:30 AM75 °FBroken clouds.7 mph69%30.07 "HgN/A
8:00 AM72 °FBroken clouds.6 mph78%30.07 "HgN/A
7:00 AM66 °FPartly sunny.3 mph83%30.07 "HgN/A
6:30 AM64 °FBroken clouds.7 mph88%30.07 "HgN/A
6:00 AM64 °FBroken clouds.2 mph88%30.07 "HgN/A
5:00 AM64 °FPassing clouds.3 mph88%30.04 "HgN/A
4:00 AM66 °FPassing clouds.2 mph83%30.04 "HgN/A
3:30 AM66 °FPassing clouds.No wind83%30.04 "HgN/A
3:00 AM66 °FPassing clouds.2 mph83%30.04 "HgN/A
2:30 AM66 °FPassing clouds.3 mph83%30.04 "HgN/A
2:00 AM66 °FPassing clouds.7 mph88%30.04 "HgN/A
1:30 AM68 °FPassing clouds.6 mph83%30.07 "HgN/A
1:00 AM68 °FPassing clouds.2 mph83%30.07 "HgN/A
Weather by CustomWeather, © 2016

See weather overviewHow to use our weather pages